{"data":{"norad_id":62362,"intl_designator":"2024-244A","name":"O3B MPOWER F7","alt_names":[],"object_type":"PAYLOAD","status":"ACTIVE","operator":null,"country":"O3B","launch_date":"2024-12-17","launch_site_code":"AFETR","launch_vehicle":null,"mission":null,"orbit_class":"UNKNOWN","rcs_meters":null,"size_class":null,"mass_kg":null,"dimensions":null,"purposes":["comms"],"wikipedia_slug":null,"has_3d_model":false,"image_url":null,"decayed_at":null,"tle_current":{"epoch":"2026-09-19T19:46:12.351648Z","epoch_age_seconds":72805,"freshness":"FRESH","line1":"1 62362U 24244A   26262.82375407 -.00000027  00000+0  00000+0 0  9997","line2":"2 62362   0.0582 334.4219 0005742 198.9581 186.6299  5.00115415 31266","mean_motion":5.00115415,"eccentricity":0.0005742,"inclination_deg":0.0582,"raan_deg":334.4219,"arg_perigee_deg":198.9581,"mean_anomaly_deg":186.6299,"bstar":0,"rev_number":3126,"period_min":287.93353630182,"perigee_km":8057.5980935315,"apogee_km":8074.1856162685,"semimajor_km":14444.0288549,"source":"CELESTRAK","updated_at":"2026-09-20T09:00:35.690344Z"}}}